Location: Christianberg
(48.9086°N, 14.0209°E)
Time: 21:20:40
(UTC+00:00)

Cosmos 405 Rocket - Pass Details

Date: 20 June 2021
Orbit: 489 x 552 km, 81.3° (Epoch: 02 August)

Event Time Altitude Azimuth Distance (km) Brightness Sun altitude
Exits shadow 00:24:05 30° 221° (SW) 899 3.4 -15.6°
Maximum altitude 00:25:36 54° 285° (WNW) 605 2.9 -15.5°
Drops below altitude 10° 00:29:14 10° 3° (N) 1,694 6.5 -15.3°
Sets 00:31:24 0° 8° (N) 2,585 7.9 -15.2°
